This is the latest recevied weather packets stored in our database for station/object DK0KTL-4. If no packets are shown the sender has not sent any weather packets the latest 10 day(s).
| Time | Temp. | Humidity | Pressure | Rain* | Wind** | Luminosity | Snow |
|---|---|---|---|---|---|---|---|
| 1778020290 | 12.22° C | 94% | 1004.6 hPa | 1.78 mm | - | - | - |
| 1778019989 | 12.22° C | 94% | 1004.6 hPa | 2.29 mm | - | - | - |
| 1778019389 | 12.22° C | 94% | 1004.8 hPa | 3.56 mm | - | - | - |
| 1778019088 | 12.22° C | 94% | 1004.8 hPa | 4.06 mm | - | - | - |
| 1778018844 | 12.22° C | 94% | 1004.9 hPa | 4.83 mm | - | - | - |
| 1778018788 | 12.22° C | 94% | 1004.9 hPa | 4.83 mm | - | - | - |
| 1778018488 | 12.22° C | 94% | 1004.9 hPa | 5.59 mm | - | - | - |
| 1778018187 | 12.22° C | 94% | 1004.9 hPa | 6.1 mm | - | - | - |
| 1778017887 | 12.22° C | 94% | 1004.9 hPa | 7.11 mm | - | - | - |
| 1778017287 | 12.22° C | 94% | 1005.1 hPa | 8.64 mm | - | - | - |
| 1778016986 | 12.22° C | 94% | 1005 hPa | 9.4 mm | - | - | - |
| 1778016686 | 12.22° C | 94% | 1004.9 hPa | 10.16 mm | - | - | - |
| 1778016386 | 12.22° C | 93% | 1004.7 hPa | 10.16 mm | - | - | - |
| 1778016085 | 12.22° C | 93% | 1004.7 hPa | 10.41 mm | - | - | - |
| 1778015785 | 12.22° C | 93% | 1004.9 hPa | 10.16 mm | - | - | - |
| 1778015485 | 12.22° C | 93% | 1005 hPa | 10.41 mm | - | - | - |
| 1778015185 | 12.22° C | 93% | 1005.1 hPa | 10.41 mm | - | - | - |
| 1778014884 | 12.22° C | 93% | 1005.1 hPa | 10.67 mm | - | - | - |
| 1778014584 | 12.22° C | 92% | 1005.1 hPa | 10.92 mm | - | - | - |
| 1778014284 | 12.22° C | 92% | 1005.1 hPa | 11.68 mm | - | - | - |
| 1778013983 | 12.22° C | 92% | 1005.1 hPa | 12.45 mm | - | - | - |
| 1778013683 | 12.22° C | 92% | 1005 hPa | 12.95 mm | - | - | - |
| 1778013383 | 12.22° C | 92% | 1005.1 hPa | 12.45 mm | - | - | - |
| 1778013083 | 12.78° C | 91% | 1005.2 hPa | 12.19 mm | - | - | - |
| 1778012782 | 12.78° C | 91% | 1005.5 hPa | 12.19 mm | - | - | - |
* Rain latest hour (hover to see other rain measurements)
** Current wind speed in m/s (hover to see current wind gust speed)